COSMOS 2251 DEB, 38001

Orbit data source: Space-Track

COSMOS 2251 DEB, 38001 is space debris in LEO originally from a launch on Wed, 16 Jun 1993 UTC launched from the Plesetsk Missile And Space Complex (PKMTR). The debris from Iridium 33, an American commercial communications satellite, has been tracked extensively since its accidental collision with the defunct Russian satellite Cosmos 2251 in 2009. This event, occurring at high speed in low Earth orbit (LEO), generated thousands of pieces of space debris, significantly increasing the risk of further collisions. The Iridium 33 debris cloud has impacted space traffic management and orbital debris mitigation strategies, making it a subject of ongoing study in space situational awareness.

Loading next visibility...
Identifier
38001, 1993-036BRC
Orbit
LEO
Country
Flag of CISCIS
Related business
Manufacturer
Unknown
Mission
Spacecraft
Bus & Motor
Unknown
Mass
Unknown
Launch date (UTC)
1993-06-16 (32 years ago)
Launch vehicle
Unknown
Launch site
Plesetsk Missile And Space Complex (PKMTR)
Object type
Payload
Rocket body
Debris
Shape & HBR
Unknown shape, 0.1 m
Radar Cross Section
Small (<0.1 m²)

Expand to show TLE details & history
Last TLE update: 2 days ago

TLE from 2 days ago
0 COSMOS 2251 DEB
1 38001U 93036BRC 25299.55940483  .00008909  00000-0  11864-2 0  9996
2 38001  74.0024 225.2692 0064422  24.9389 152.7108 14.78324963740105
Epoch: 2025-10-26T13:25Z
TLE epoch observation values (Epoch: 2025-10-26T13:25:32.577Z)
Latitude
1.83497°
Longitude
168.18616°
Altitude
677.275 km
Speed
7.497 km/s
True Right ascension
02h 58m 58s
True Declination
1° 49' 26"
Sunlit
Object was in full shadow at epoch
Visualization orbit readout
Latitude
Unknown
Longitude
Unknown
Altitude
Unknown
Speed
Unknown
Apparent Right ascension
Unknown
Apparent Declination
Unknown
Sunlit
N/A
Visualization observer readout
Local Sidereal Time
17:32:16
Azimuth
Unknown
Elevation
Unknown
Doppler factor
Unknown
Orbital elements
Apogee altitude
677.359 km
Perigee altitude
587.035 km
Semi-major axis
7,010.334 km
Eccentricity
0.00644
Inclination
74.0024°
RAAN
225.2692°
Arg. of periapsis
24.9389°
True anomaly
153.04685°
Mean anomaly
152.7108°
Eccentric anomaly
152.87907°
Mean motion
3.69773 °/min
Orbital period
97.36 mins
BSTAR
0.0011864

Documentation

Showing up to 5 results
|